Volver al catálogo

KUIPER-00442

ActivoComunicacionesLEO
NORAD 68943·PAYLOAD·🇺🇸 United States

Lanzado Apr 30, 2026 desde Guiana Space Centre

Loading…

Próximos Pases (próximas 24 horas)

TLE

ActualizadoSource: CelesTrak SupGP

Época: Sep 14, 2026, 20:55 UTC

1 68943C 26098AA  26257.87194444  .00187320  00000+0  24518-1 0  2576
2 68943  51.9024  14.1066 0000686 113.8472 230.2316 14.79749432    15

Sigue KUIPER-00442 en tiempo real con AllMySat

Download on the App Store